TimeEDT,TemperatureF,Dew PointF,Humidity,Sea Level PressureIn,VisibilityMPH,Wind Direction,Wind SpeedMPH,Gust SpeedMPH,PrecipitationIn,Events,Conditions,WindDirDegrees,DateUTC
12:54 AM,51.1,46.9,86,30.35,10.0,Calm,Calm,-,N/A,,Clear,0,2012-10-14 04:54:00
1:54 AM,53.1,48.9,86,30.33,10.0,Calm,Calm,-,N/A,,Clear,0,2012-10-14 05:54:00
2:54 AM,52.0,48.0,86,30.31,7.0,Calm,Calm,-,N/A,,Clear,0,2012-10-14 06:54:00
3:12 AM,50.0,46.4,87,30.30,1.8,Calm,Calm,-,N/A,,Clear,0,2012-10-14 07:12:00
3:18 AM,51.8,46.4,82,30.30,3.0,Calm,Calm,-,N/A,,Clear,0,2012-10-14 07:18:00
3:54 AM,48.9,46.0,90,30.29,10.0,WNW,3.5,-,N/A,,Clear,290,2012-10-14 07:54:00
4:54 AM,50.0,46.0,86,30.28,10.0,Calm,Calm,-,N/A,,Clear,0,2012-10-14 08:54:00
5:46 AM,50.0,46.4,87,30.28,1.8,Calm,Calm,-,N/A,,Clear,0,2012-10-14 09:46:00
5:54 AM,51.1,46.9,86,30.28,0.8,Calm,Calm,-,N/A,,Clear,0,2012-10-14 09:54:00
6:05 AM,50.0,48.2,94,30.28,1.0,Calm,Calm,-,N/A,,Clear,0,2012-10-14 10:05:00
6:13 AM,50.0,46.4,87,30.28,3.0,Calm,Calm,-,N/A,,Clear,0,2012-10-14 10:13:00
6:29 AM,50.0,46.4,87,30.28,1.8,Calm,Calm,-,N/A,,Clear,0,2012-10-14 10:29:00
6:54 AM,51.1,46.9,86,30.27,5.0,Calm,Calm,-,N/A,,Clear,0,2012-10-14 10:54:00
7:30 AM,50.0,48.2,94,30.28,1.0,Calm,Calm,-,N/A,,Clear,0,2012-10-14 11:30:00
7:37 AM,50.0,46.4,87,30.28,0.5,Calm,Calm,-,N/A,Fog,Fog,0,2012-10-14 11:37:00
7:45 AM,50.0,46.4,87,30.28,2.0,Calm,Calm,-,N/A,,Clear,0,2012-10-14 11:45:00
7:52 AM,51.8,48.2,88,30.28,10.0,Calm,Calm,-,N/A,,Clear,0,2012-10-14 11:52:00
7:54 AM,52.0,48.9,89,30.28,10.0,Calm,Calm,-,N/A,,Clear,0,2012-10-14 11:54:00
8:54 AM,63.0,57.0,81,30.30,10.0,Calm,Calm,-,N/A,,Clear,0,2012-10-14 12:54:00
9:54 AM,71.1,59.0,66,30.29,10.0,Calm,Calm,-,N/A,,Clear,0,2012-10-14 13:54:00
10:54 AM,77.0,55.0,47,30.28,10.0,SSE,8.1,-,N/A,,Clear,160,2012-10-14 14:54:00
11:54 AM,79.0,55.0,44,30.27,10.0,South,10.4,18.4,N/A,,Clear,170,2012-10-14 15:54:00
12:54 PM,80.1,50.0,35,30.23,10.0,SSW,10.4,-,N/A,,Clear,200,2012-10-14 16:54:00
1:54 PM,81.0,52.0,36,30.19,10.0,SSW,9.2,-,N/A,,Clear,200,2012-10-14 17:54:00
2:54 PM,81.0,52.0,36,30.17,10.0,SSW,9.2,-,N/A,,Clear,210,2012-10-14 18:54:00
4:54 PM,80.1,54.0,40,30.12,10.0,South,9.2,-,N/A,,Clear,190,2012-10-14 20:54:00
5:54 PM,77.0,53.1,43,30.12,10.0,South,4.6,-,N/A,,Clear,170,2012-10-14 21:54:00
6:54 PM,72.0,55.9,57,30.12,10.0,SSE,5.8,-,N/A,,Clear,150,2012-10-14 22:54:00
7:54 PM,71.1,57.9,63,30.11,10.0,South,6.9,-,N/A,,Clear,170,2012-10-14 23:54:00
8:54 PM,69.1,59.0,70,30.11,10.0,SSE,5.8,-,N/A,,Clear,160,2012-10-15 00:54:00
9:54 PM,69.1,60.1,73,30.10,10.0,South,6.9,-,N/A,,Clear,170,2012-10-15 01:54:00
10:54 PM,68.0,59.0,73,30.09,10.0,South,6.9,-,N/A,,Clear,180,2012-10-15 02:54:00
11:54 PM,69.1,57.9,68,30.06,10.0,South,6.9,-,N/A,,Clear,170,2012-10-15 03:54:00